Location: Goettingen
(51.5300°N, 9.9433°E)
Time: 09:54:59
(UTC+01:00)

BlueWalker 3 - Visible Passes

Search period start: 28 February 2024 00:00
Search period end: 09 March 2024 00:00
Orbit: 485 x 500 km, 53.2° (Epoch: 27 February)

Date Brightness Start Highest point End Pass type
(mag) Time Alt. Az. Time Alt. Az. Time Alt. Az.
28 Feb 1.8 19:48:23 10° WNW 19:52:11 81° SSW 19:53:00 52° ESE visible
28 Feb 5.0 21:27:00 10° W 21:27:29 12° W 21:27:29 12° W visible
29 Feb 1.8 19:24:31 10° WNW 19:28:19 83° SSW 19:30:13 28° ESE visible
29 Feb 4.3 21:03:07 10° W 21:04:42 19° WSW 21:04:42 19° WSW visible
01 Mar 1.9 19:00:39 10° WNW 19:04:26 84° SSW 19:07:28 15° ESE visible
01 Mar 3.7 20:39:14 10° W 20:41:57 25° SW 20:41:57 25° SW visible
02 Mar 1.9 18:36:45 10° WNW 18:40:32 85° SSW 18:44:19 10° ESE visible
02 Mar 3.5 20:15:19 10° W 20:18:30 26° SW 20:19:16 24° SSW visible
03 Mar 3.6 19:51:23 10° W 19:54:36 27° SW 19:56:38 17° S visible
04 Mar 3.6 19:27:27 10° W 19:30:42 27° SW 19:33:56 10° SSE visible
05 Mar 3.7 19:03:30 10° W 19:06:46 28° SW 19:10:02 10° SSE visible
06 Mar 3.7 18:39:32 10° W 18:42:50 29° SW 18:46:07 10° SSE visible
